Tracking 20472 objects as of 28-Feb-2020
HD Live streaming from Space Station
objects crossing your sky now

SL-24 DEB

Track SL-24 DEB now!
10-day predictions


NORAD ID: 40048
Int'l Code: 2014-033AQ
Perigee: 416.8 km
Apogee: 430.5 km
Inclination: 98.0 °
Period: 92.9 minutes
Semi major axis: 6794 km
RCS: Unknown
Launch date: June 19, 2014
Source: Commonwealth of Independent States (former USSR) (CIS)
Launch site: Orenburg, Russia (OREN)

Note: This is SATELLITE DEBRIS
aabbcc
Your satellite tracking list
Your tracking list is empty




NASA's NSSDC Master Catalog

Two Line Element Set (TLE):
1 40048U 14033AQ  20058.91280393  .00012646  00000-0  22649-3 0  9992
2 40048  97.9812 124.9598 0010143 336.6419  23.4369 15.50072919316885
Source of the keplerian elements: AFSPC